Location: Newark
(49.8348°N, 24.0280°E)
Time: 16:12:45
(UTC+00:00)

deb Explorer IX - Pass Details

Date: 01 February 2020
Orbit: 549 x 1099 km, 38.8° (Epoch: 17 February)

Event Time Altitude Azimuth Distance (km) Brightness Sun altitude
Rises 18:36:13 0° 239° (WSW) 3,480 ? -32.0°
Reaches altitude 10° 18:38:56 10° 229° (SW) 2,627 ? -32.4°
Enters shadow 18:42:14 25° 203° (SSW) 1,853 ? -32.9°
